Location: Campillo
(40.8621°N, 4.2488°W)
Time: 12:25:32
(UTC+00:00)

Cosmos 1709 Rocket - Pass Details

Date: 11 May 2021
Orbit: 947 x 1002 km, 82.9° (Epoch: 13 June)

Event Time Altitude Azimuth Distance (km) Brightness Sun altitude
Rises 21:03:12 0° 351° (N) 3,632 7.8 -16.4°
Reaches altitude 10° 21:05:42 10° 351° (N) 2,680 7.1 -16.7°
Maximum altitude 21:11:50 84° 265° (W) 958 4.0 -17.5°
Enters shadow 21:16:23 19° 178° (S) 2,094 5.3 -18.1°
